Location: Unnamed
(51.5169°N, 0.1311°W)
Time: 21:28:27
(UTC+01:00)

Tiros 1 - Pass Details

Date: 11 August 2024
Orbit: 623 x 655 km, 48.4° (Epoch: 16 September)

Event Time Altitude Azimuth Distance (km) Brightness Sun altitude
Rises 04:51:41 0° 186° (S) 2,963 10.1 -7.3°
Reaches altitude 10° 04:55:57 10° 150° (SSE) 2,061 9.7 -6.8°
Maximum altitude 04:57:04 11° 136° (SE) 2,012 9.8 -6.6°
Drops below altitude 10° 04:58:11 10° 122° (ESE) 2,064 10.1 -6.5°
Sets 05:02:28 0° 86° (E) 2,981 11.8 -5.9°
